This is the latest recevied weather packets stored in our database for station/object YO2KCB-10. If no packets are shown the sender has not sent any weather packets the latest 10 day(s).
| Time | Temp. | Humidity | Pressure | Rain* | Wind** | Luminosity | Snow |
|---|---|---|---|---|---|---|---|
| 1777600821 | 7.22° C | 32% | 1023.5 hPa | - | - | - | - |
| 1777599621 | 7.22° C | 32% | 1023.6 hPa | - | - | - | - |
| 1777598421 | 7.78° C | 33% | 1023.7 hPa | - | - | - | - |
| 1777597221 | 7.78° C | 32% | 1023.7 hPa | - | - | - | - |
| 1777596021 | 7.78° C | 33% | 1023.7 hPa | - | - | - | - |
| 1777594821 | 8.33° C | 35% | 1023.6 hPa | - | - | - | - |
| 1777593620 | 8.33° C | 33% | 1023.6 hPa | - | - | - | - |
| 1777592420 | 8.89° C | 32% | 1023.6 hPa | - | - | - | - |
| 1777591220 | 8.89° C | 31% | 1023.6 hPa | - | - | - | - |
| 1777590020 | 9.44° C | 31% | 1023.6 hPa | - | - | - | - |
| 1777588820 | 9.44° C | 32% | 1023.6 hPa | - | - | - | - |
| 1777587620 | 10° C | 33% | 1023.6 hPa | - | - | - | - |
| 1777586419 | 10.56° C | 30% | 1023.5 hPa | - | - | - | - |
| 1777585219 | 10.56° C | 29% | 1023.5 hPa | - | - | - | - |
| 1777584019 | 11.11° C | 29% | 1023.2 hPa | - | - | - | - |
| 1777582819 | 11.11° C | 29% | 1023.2 hPa | - | - | - | - |
| 1777581618 | 11.67° C | 30% | 1023.2 hPa | - | - | - | - |
| 1777580418 | 11.67° C | 30% | 1023 hPa | - | - | - | - |
| 1777579218 | 12.78° C | 27% | 1023 hPa | - | - | - | - |
| 1777578017 | 12.78° C | 27% | 1022.9 hPa | - | - | - | - |
| 1777576817 | 13.33° C | 27% | 1022.8 hPa | - | - | - | - |
| 1777575617 | 14.44° C | 27% | 1022.6 hPa | - | - | - | - |
| 1777574417 | 15° C | 26% | 1022.4 hPa | - | - | - | - |
| 1777573217 | 15.56° C | 26% | 1022.2 hPa | - | - | - | - |
| 1777572017 | 16.11° C | 25% | 1021.9 hPa | - | - | - | - |
* Rain since midnight (hover to see other rain measurements)
** Current wind speed in m/s (hover to see current wind gust speed)